Location: Middlebury
(44.0133°N, 73.1813°W)
Time: 21:35:31
(UTC-05:00)

ISS - Pass Details

Date: 22 January 2020
Orbit: 415 x 422 km, 51.6° (Epoch: 27 February)

Event Time Altitude Azimuth Distance (km) Brightness Sun altitude
Rises 18:28:47 0° 238° (WSW) 2,370 1.4 -17.8°
Reaches altitude 10° 18:30:53 10° 239° (WSW) 1,507 0.1 -18.2°
Maximum altitude 18:34:16 85° 325° (NW) 429 -3.8 -18.8°
Enters shadow 18:34:42 66° 48° (NE) 466 -3.8 -18.8°
